RH
71 75 69 62 61 65 71 74 65 77 99 79 52 39 36 44 38 40 36 32 33 42 41 45 60 56 58 57 57 57 56 60 59 59 68 98 97 88
71 67 66 61 63 65 68 66 65 62 52 75 72 47 37 35 46 47 45 39 32 29 37 40 39 46 56 55 56 53 54 56 55 58 61 81 90 84
66 66 70 82 92 99 100 98 91 75 71 90 90 67 49 43 40 44 42 41 38 41 37 32 35 35 42 52 50 57 60 57 56 58 66 60 62 74
74 69 77 93 93 98 94 91 94 99 96 88 100 100 86 58 54 49 42 47 45 44 49 41 41 38 40 42 48 60 58 57 60 60 59 65 63 52
84 83 69 74 75 74 82 78 68 58 52 62 77 74 66 63 51 48 48 45 46 44 40 39 36 34 43 44 44 47 50 54 54 58 64 62 60 62
63 65 67 74 88 94 82 73 68 64 57 45 39 72 78 77 57 38 32 33 40 40 41 37 42 38 35 42 44 47 46 47 59 62 56 61 62 60
53 49 47 46 48 49 55 53 48 48 48 46 43 38 59 65 68 61 51 48 50 42 39 40 38 41 38 33 36 41 46 50 50 58 76 65 57 58
40 41 36 36 32 33 33 34 38 37 32 35 40 44 42 41 41 47 48 51 65 52 56 51 55 44 41 46 46 41 45 50 58 66 52 72 90 70
36 33 30 32 32 30 29 32 31 32 32 30 28 28 34 41 47 41 42 50 44 56 53 66 59 73 63 52 48 48 46 44 48 56 75 69 55 63
31 33 32 33 30 28 29 30 29 28 28 29 27 28 31 35 36 40 44 44 50 43 53 66 62 65 60 74 66 50 45 46 45 48 54 62 61 55
30 32 29 25 22 19 16 17 18 19 18 18 18 20 22 25 23 30 33 29 35 36 43 45 54 60 64 64 70 66 50 45 45 48 46 50 61 69
25 20 17 14 12 10 9 8 8 9 7 7 7 10 10 14 14 14 18 22 28 32 32 33 36 43 41 48 53 62 58 54 50 47 50 47 54 55
12 9 7 6 5 4 5 5 5 5 5 5 5 6 6 6 8 10 13 15 17 20 32 34 36 36 37 41 42 44 51 56 45 46 47 50 49 52
4 4 4 3 3 3 3 3 3 3 3 4 4 4 5 6 7 8 8 11 15 17 18 24 29 34 34 38 41 36 36 42 45 45 43 47 50 46
3 3 3 3 3 2 2 2 2 2 2 2 3 3 3 4 4 5 6 7 10 12 18 21 23 25 24 26 34 34 34 40 43 44 43 50 53 54
3 3 3 3 3 3 3 2 2 2 2 2 2 2 3 3 3 3 4 5 6 7 10 13 18 21 24 30 28 30 34 36 37 42 50 49 53 51
3 4 3 3 3 3 3 3 3 2 2 2 2 2 3 2 3 3 3 4 4 5 6 8 10 13 18 22 24 27 29 33 37 40 46 47 49 49
4 3 3 3 3 3 3 3 3 2 2 2 2 2 2 2 2 3 3 3 4 4 5 6 7 9 11 12 15 18 21 27 34 41 42 44 45 50
4 4 4 4 3 4 4 4 3 3 3 2 2 2 3 2 2 2 2 3 4 4 4 4 6 7 8 10 11 14 18 25 31 40 43 46 45 50
4 4 4 3 3 3 3 3 3 3 3 3 3 3 3 3 3 2 2 2 3 4 4 4 5 6 7 9 11 12 16 20 26 34 40 44 45 45
4 4 4 3 3 3 3 3 3 3 3 4 4 3 3 3 2 2 2 2 3 4 4 4 5 6 7 8 9 10 14 17 21 23 25 29 32 36
4 3 3 3 3 3 3 3 3 3 3 4 3 3 3 3 2 2 2 2 2 3 4 5 6 6 7 7 9 10 12 14 16 19 23 28 32 37
3 4 3 3 3 3 3 3 3 3 3 3 4 3 3 3 3 2 2 2 3 3 4 5 6 6 7 8 9 11 13 14 16 17 20 27 33 36
Wind_Speed
91 93 93 90 85 77 72 66 61 56 60 64 62 61 54 51 49 49 48 46 35 37 33 29 28 29 25 28 32 35 36 34 31 34 36 31 29 27
95 91 87 85 82 79 75 73 71 67 62 67 67 66 63 58 56 57 58 55 51 43 40 39 34 34 34 31 32 33 35 37 37 36 35 38 36 34
91 90 86 83 82 80 79 78 78 77 72 71 73 72 71 69 64 62 61 61 60 58 54 46 42 40 39 40 39 38 41 39 41 40 40 40 39 42
96 93 92 88 86 86 89 89 86 84 80 73 76 79 79 78 75 70 65 65 66 65 64 60 52 47 46 43 45 44 43 45 46 46 44 45 44 42
95 96 97 97 98 99 99 98 98 96 94 89 85 88 88 87 85 83 79 74 71 72 70 69 64 57 50 50 49 48 49 49 49 50 51 51 49 48
105 107 106 105 104 104 104 106 108 108 108 105 100 97 96 95 92 91 87 83 78 75 77 74 71 65 59 55 53 53 54 53 53 54 54 54 55 53
114 116 116 115 115 116 116 116 117 117 117 116 113 111 107 105 102 99 96 95 90 88 82 80 75 72 68 64 60 58 57 58 57 59 59 58 57 56
126 128 130 129 129 128 127 127 127 129 129 125 119 119 116 115 113 110 106 103 98 95 90 87 83 79 75 70 66 63 61 61 62 63 64 62 63 61
134 137 139 138 138 138 136 135 135 137 137 137 135 131 126 123 122 116 113 108 105 102 97 92 88 86 83 77 71 70 67 64 65 67 71 71 68 68
140 140 141 143 144 143 142 144 146 145 144 142 137 136 135 127 123 121 119 116 111 111 106 100 100 95 90 87 84 80 76 74 68 67 71 72 75 75
145 146 143 140 140 143 141 140 138 141 141 136 134 132 132 128 124 124 121 119 118 116 112 107 109 104 97 94 91 89 84 81 79 74 72 73 77 77
143 140 138 137 135 135 132 128 123 124 121 117 112 117 116 115 112 108 108 105 108 115 114 113 112 109 107 102 99 95 91 88 86 83 81 78 79 83
134 133 133 130 125 120 118 114 112 109 107 104 101 98 99 97 97 95 93 97 98 99 103 104 108 112 111 111 108 104 100 97 93 92 89 87 84 85
121 117 116 113 109 103 99 95 94 92 91 88 85 86 85 86 85 88 88 88 89 91 91 93 95 99 104 110 109 105 101 100 98 95 93 91 89 89
107 101 99 97 93 89 84 80 78 78 75 74 74 74 76 76 78 81 82 82 84 85 86 87 89 92 94 96 101 101 99 98 98 95 93 91 90 92
95 92 88 85 82 80 77 73 70 69 66 66 65 65 66 68 69 70 73 78 79 80 83 83 84 85 86 87 89 92 91 88 88 89 90 89 89 91
90 88 84 80 77 74 71 68 64 61 58 59 57 58 61 60 60 61 64 67 72 74 76 78 79 80 81 83 83 86 85 84 82 84 85 86 87 90
84 81 78 74 72 69 66 63 60 57 53 53 51 52 54 54 54 56 57 59 62 66 70 71 72 74 76 77 78 78 80 81 79 78 81 85 85 85
76 74 72 69 66 63 62 60 57 53 49 46 45 46 47 49 49 50 52 54 57 60 63 64 66 68 70 71 71 72 73 74 75 76 79 81 81 82
67 66 65 63 61 59 57 55 51 48 45 43 42 43 44 46 47 47 48 49 50 53 57 58 60 63 63 64 67 67 68 69 69 71 75 77 79 79
58 57 57 56 55 53 51 50 47 43 40 39 38 40 41 42 44 44 45 46 47 48 50 51 53 57 60 60 60 59 62 64 65 67 70 72 74 75
54 53 51 50 49 49 48 45 43 41 37 35 35 37 38 40 40 39 40 43 43 44 44 45 48 52 53 55 55 57 58 58 59 62 63 65 65 66
48 47 48 47 45 43 43 42 41 39 36 33 33 34 35 37 37 36 36 38 40 41 41 41 44 46 47 48 49 50 51 54 57 58 59 59 60 60
Wind_Direction
302 302 302 303 303 302 302 302 300 295 297 298 301 303 302 302 303 304 305 308 301 299 302 291 279 278 268 265 265 264 264 259 258 249 250 248 252 261
299 300 298 299 299 299 300 299 298 297 295 293 294 298 299 298 299 299 300 301 300 298 292 289 287 275 271 266 258 257 257 257 256 253 250 251 251 256
295 296 295 294 295 294 294 294 294 293 293 292 292 293 294 293 293 292 292 292 293 293 295 288 287 284 275 266 267 257 253 254 255 253 251 252 252 255
292 292 292 291 289 288 290 290 288 287 286 285 285 286 287 289 289 286 285 286 287 288 288 288 287 280 279 272 265 261 259 252 250 253 253 255 255 255
289 289 289 288 287 288 287 287 285 284 284 282 281 281 281 281 282 283 283 282 281 282 282 283 283 281 275 275 269 262 259 261 256 250 251 253 254 255
289 289 288 287 286 286 286 285 285 285 285 284 282 281 281 281 280 279 279 278 275 275 276 277 277 277 273 269 265 265 264 259 255 256 252 250 250 251
288 288 286 285 284 283 282 282 282 282 283 283 281 282 279 277 276 277 278 279 278 278 275 274 274 275 271 268 267 261 261 260 256 251 253 254 251 248
289 288 287 286 285 283 281 280 280 281 281 279 278 278 278 276 275 275 274 274 273 274 274 274 273 271 269 267 267 263 258 256 256 255 251 250 253 253
288 288 287 286 285 284 283 282 280 279 279 279 278 277 274 271 272 272 271 270 271 270 270 268 268 267 267 267 265 265 261 257 255 253 252 254 252 250
289 288 286 285 284 282 282 281 281 280 280 278 276 276 274 273 271 268 266 266 264 268 267 265 266 264 264 265 265 265 263 261 258 253 253 252 253 251
288 287 286 284 282 281 280 280 279 279 280 280 280 278 277 274 271 269 268 266 262 262 261 261 262 262 262 261 260 261 261 260 260 259 256 254 251 250
288 286 285 284 284 284 284 284 281 280 280 278 276 274 274 272 271 271 267 266 266 266 262 259 259 260 260 260 260 257 256 258 260 258 258 256 253 249
287 286 286 286 285 284 284 283 282 281 279 278 276 272 271 269 267 266 266 265 264 261 259 259 258 256 257 256 258 259 258 257 256 258 258 257 254 249
287 288 287 287 286 285 284 282 281 279 278 276 273 272 269 265 264 265 262 260 259 259 257 256 254 253 254 255 256 255 255 256 256 254 253 254 253 250
290 290 289 288 287 286 284 282 280 278 277 274 273 271 267 264 262 260 258 257 256 254 253 254 254 253 252 250 251 252 253 253 253 251 251 250 249 249
293 292 291 290 289 287 286 284 281 279 277 274 271 269 266 263 260 257 255 254 252 251 250 249 250 249 248 249 248 248 248 248 248 248 248 247 246 246
294 292 292 291 290 288 286 284 281 279 276 274 270 267 265 262 260 257 254 251 249 247 247 246 246 245 245 246 246 245 245 246 245 245 245 244 244 244
293 293 293 291 290 288 287 284 282 280 277 273 270 266 265 262 260 256 253 250 247 245 244 243 243 243 242 242 242 244 243 242 242 243 241 242 243 244
293 293 292 290 289 286 285 283 282 280 277 273 269 265 262 260 258 253 250 247 245 243 242 241 240 240 240 239 239 239 240 240 239 241 241 242 242 244
292 291 289 287 286 284 283 282 281 279 276 272 266 262 259 259 256 251 248 244 242 242 240 238 236 236 236 236 236 236 237 238 238 240 242 243 242 242
291 287 285 285 283 282 281 280 279 277 273 270 265 260 257 255 254 249 245 241 238 238 236 234 233 232 232 232 233 234 235 235 236 239 242 242 243 242
293 289 285 282 281 280 279 277 274 272 269 265 261 257 255 252 251 247 243 239 235 233 232 229 229 228 229 230 230 232 234 235 237 239 240 240 243 244
293 289 286 284 280 276 275 273 272 270 267 262 257 253 250 248 247 245 240 236 232 231 227 224 226 227 227 228 229 231 233 236 238 239 239 240 242 243